Date String (YYYY-MM-DD hh:mm:ss) UTC,Instrument flags,Ambient pressure (hPa),Sample flow (lpm),Bypass flow (lpm),Sample temperature (°C),Ambient temperature (°C),ASC tube jacket temperature (°C),LED temperature (°C),Box temperature (°C),Sample RH (%),Span deviation,Mass concentration (μg/m³),Mass concentration (μg/m³),Mass concentration (μg/m³)
DateTimeUTC,F1_M11,P_M11,Q1_M11,Q2_M11,T1_M11,T2_M11,T3_M11,T4_M11,T5_M11,U1_M11,ZSPAN_M11,X2_M11,X0_M11,X1_M11
2022-11-30 21:00:00,,0824.1,5.00,0.00,24.5,23.3,00.0,33.4,26.4,08.0,0000.0,0011.33,0014.92,0011.03
2022-11-30 21:01:00,,0824.1,4.99,0.00,24.6,23.3,00.0,33.4,26.5,08.1,0000.0,0011.34,0014.93,0011.06
2022-11-30 21:02:00,,0824.3,5.00,0.00,24.6,23.3,00.0,33.4,26.4,08.1,0000.2,0011.47,0015.09,0011.18
2022-11-30 21:03:00,,0824.3,5.00,0.00,24.6,23.3,00.0,33.4,26.4,08.1,0000.1,0011.63,0015.08,0011.34
2022-11-30 21:04:00,,0824.2,4.98,0.00,24.6,23.3,00.0,33.4,26.5,08.2,0000.1,0011.81,0015.54,0011.50
2022-11-30 21:05:00,,0824.2,5.02,0.00,24.6,23.3,00.0,33.4,26.4,08.1,0000.7,0011.97,0016.53,0011.65
2022-11-30 21:06:00,,0824.2,5.01,0.00,24.6,23.3,00.0,33.4,26.4,08.2,0001.4,0012.11,0017.02,0011.77
2022-11-30 21:07:00,,0824.2,4.99,0.00,24.6,23.4,00.0,33.4,26.4,08.1,0002.0,0012.24,0017.56,0011.91
2022-11-30 21:08:00,,0824.1,5.01,0.00,24.6,23.4,00.0,33.4,26.4,08.1,0001.9,0012.34,0018.44,0012.03
2022-11-30 21:09:00,,0824.0,5.00,0.00,24.6,23.4,00.0,33.4,26.5,08.1,0001.9,0012.45,0018.51,0012.14
2022-11-30 21:10:00,,0824.0,5.00,0.00,24.6,23.4,00.0,33.4,26.5,08.2,0001.5,0012.60,0018.70,0012.27
2022-11-30 21:11:00,,0824.1,5.02,0.00,24.6,23.4,00.0,33.4,26.5,08.1,0001.4,0012.74,0018.81,0012.38
2022-11-30 21:12:00,,0824.1,4.99,0.00,24.6,23.4,00.0,33.5,26.5,08.1,0001.8,0012.88,0019.02,0012.52
2022-11-30 21:13:00,,0824.1,5.00,0.00,24.6,23.4,00.0,33.5,26.5,08.1,0001.1,0012.96,0019.18,0012.58
2022-11-30 21:14:00,,0824.0,5.00,0.00,24.7,23.4,00.0,33.5,26.5,08.0,0000.0,0012.96,0019.22,0012.55
2022-11-30 21:15:00,,0824.0,5.01,0.00,24.7,23.4,00.0,33.5,26.5,08.1,0000.0,0012.93,0019.19,0012.53
2022-11-30 21:16:00,,0824.0,4.99,0.00,24.7,23.4,00.0,33.5,26.6,08.1,0000.0,0012.92,0018.29,0012.52
2022-11-30 21:17:00,,0824.0,5.00,0.00,24.7,23.4,00.0,33.5,26.5,08.0,0000.0,0012.91,0018.21,0012.53
2022-11-30 21:18:00,,0824.0,5.01,0.00,24.7,23.4,00.0,33.5,26.5,08.1,0000.0,0012.91,0018.32,0012.53
2022-11-30 21:19:00,,0824.0,5.01,0.00,24.7,23.4,00.0,33.5,26.6,08.0,0000.0,0012.93,0017.54,0012.53
2022-11-30 21:20:00,,0824.0,4.99,0.00,24.7,23.5,00.0,33.5,26.6,08.0,0000.0,0012.95,0017.42,0012.56
2022-11-30 21:21:00,,0824.0,5.00,0.00,24.7,23.5,00.0,33.5,26.6,08.1,0000.0,0012.93,0017.54,0012.58
2022-11-30 21:22:00,,0824.0,5.02,0.00,24.7,23.5,00.0,33.5,26.6,08.0,0000.0,0012.90,0017.48,0012.58
2022-11-30 21:23:00,,0824.0,4.99,0.00,24.7,23.5,00.0,33.5,26.6,08.1,0000.0,0012.90,0017.43,0012.57
2022-11-30 21:24:00,,0824.1,4.99,0.00,24.7,23.5,00.0,33.5,26.6,08.1,0000.0,0012.87,0017.33,0012.57
2022-11-30 21:25:00,,0824.1,5.01,0.00,24.7,23.5,00.0,33.6,26.6,08.1,0000.0,0012.87,0017.32,0012.58
2022-11-30 21:26:00,,0824.1,5.00,0.00,24.7,23.5,00.0,33.6,26.6,08.1,-000.1,0012.89,0017.41,0012.59
2022-11-30 21:27:00,,0824.0,4.99,0.00,24.7,23.5,00.0,33.6,26.6,08.0,-000.2,0012.90,0017.49,0012.60
2022-11-30 21:28:00,,0823.9,5.01,0.00,24.8,23.5,00.0,33.6,26.6,08.0,0000.2,0012.93,0017.29,0012.61
2022-11-30 21:29:00,,0823.8,5.01,0.00,24.8,23.5,00.0,33.6,26.7,08.0,0000.7,0012.95,0016.93,0012.63
2022-11-30 21:30:00,,0824.0,5.00,0.00,24.8,23.5,00.0,33.6,26.7,08.0,0000.7,0012.96,0016.95,0012.64
2022-11-30 21:31:00,,0824.1,4.99,0.00,24.8,23.5,00.0,33.6,26.6,08.1,0000.2,0012.97,0017.00,0012.64
2022-11-30 21:32:00,,0824.1,5.00,0.00,24.8,23.5,00.0,33.6,26.6,08.0,-000.2,0012.96,0016.82,0012.61
2022-11-30 21:33:00,,0824.1,5.01,0.00,24.8,23.5,00.0,33.6,26.6,08.0,0000.1,0012.86,0016.75,0012.51
2022-11-30 21:34:00,,0824.0,4.99,0.00,24.8,23.5,00.0,33.6,26.7,08.0,-000.1,0012.73,0016.56,0012.37
2022-11-30 21:35:00,,0824.0,4.99,0.00,24.8,23.5,00.0,33.6,26.7,08.0,0000.5,0012.61,0016.41,0012.25
2022-11-30 21:36:00,,0824.0,5.01,0.00,24.8,23.5,00.0,33.6,26.7,08.1,0000.3,0012.55,0016.35,0012.14
2022-11-30 21:37:00,,0823.8,5.00,0.00,24.8,23.5,00.0,33.6,26.7,08.1,0000.0,0012.52,0016.25,0012.08
2022-11-30 21:38:00,,0823.7,4.98,0.00,24.8,23.5,00.0,33.6,26.7,08.3,0000.0,0012.43,0016.00,0012.02
2022-11-30 21:39:00,,0823.7,5.01,0.00,24.8,23.5,00.0,33.7,26.7,08.2,0000.0,0012.38,0015.96,0011.98
2022-11-30 21:40:00,,0823.7,5.00,0.00,24.7,23.4,00.0,33.7,26.6,08.2,0000.0,0012.42,0016.08,0012.00
2022-11-30 21:41:00,,0823.9,4.98,0.00,24.7,23.4,00.0,33.6,26.6,08.1,0000.0,0012.44,0016.08,0012.00
2022-11-30 21:42:00,,0824.1,5.02,0.00,24.7,23.4,00.0,33.6,26.5,08.2,0000.0,0012.42,0016.33,0012.00
2022-11-30 21:43:00,,0824.0,4.99,0.00,24.7,23.4,00.0,33.6,26.5,08.4,0000.0,0012.47,0016.70,0012.04
2022-11-30 21:44:00,,0824.0,4.99,0.00,24.7,23.4,00.0,33.6,26.5,08.3,0000.0,0012.59,0016.80,0012.15
2022-11-30 21:45:00,,0823.9,5.02,0.00,24.7,23.4,00.0,33.6,26.6,08.2,0000.0,0012.76,0017.24,0012.29
2022-11-30 21:46:00,,0823.7,4.99,0.00,24.7,23.4,00.0,33.6,26.6,08.2,0000.0,0012.92,0017.69,0012.45
2022-11-30 21:47:00,,0823.7,4.99,0.00,24.7,23.4,00.0,33.6,26.6,08.2,0000.0,0013.03,0018.03,0012.58
2022-11-30 21:48:00,,0823.7,5.02,0.00,24.7,23.4,00.0,33.6,26.6,08.3,0000.0,0013.09,0018.84,0012.65
2022-11-30 21:49:00,,0823.8,4.99,0.00,24.7,23.4,00.0,33.6,26.6,08.3,0000.0,0013.17,0019.99,0012.73
2022-11-30 21:50:00,,0823.9,4.99,0.00,24.7,23.4,00.0,33.6,26.6,08.2,0000.0,0013.22,0020.22,0012.79
2022-11-30 21:51:00,,0823.7,5.02,0.00,24.7,23.4,00.0,33.6,26.6,08.2,0000.0,0013.21,0020.20,0012.79
2022-11-30 21:52:00,,0823.7,4.99,0.00,24.7,23.4,00.0,33.6,26.6,08.2,0000.0,0013.21,0020.23,0012.78
2022-11-30 21:53:00,,0823.7,4.99,0.00,24.7,23.4,00.0,33.6,26.6,08.2,0000.0,0013.22,0019.92,0012.79
2022-11-30 21:54:00,,0823.7,4.99,0.00,24.7,23.4,00.0,33.6,26.6,08.2,-000.3,0013.19,0020.22,0012.78
2022-11-30 21:55:00,,0823.7,5.01,0.00,24.7,23.4,00.0,33.6,26.6,08.2,0000.0,0013.18,0020.55,0012.76
2022-11-30 21:56:00,,0823.8,5.00,0.00,24.8,23.4,00.0,33.6,26.6,08.2,0000.0,0013.14,0021.10,0012.74
2022-11-30 21:57:00,,0823.7,5.00,0.00,24.8,23.4,00.0,33.6,26.6,08.2,0000.0,0013.09,0020.71,0012.72
2022-11-30 21:58:00,,0823.7,4.99,0.00,24.8,23.5,00.0,33.6,26.7,08.2,0000.0,0013.05,0020.81,0012.69
2022-11-30 21:59:00,,0823.7,5.01,0.00,24.8,23.5,00.0,33.6,26.7,08.1,0000.0,0013.03,0019.99,0012.66
